Showing default

VELA 2, 674

Orbit data source: Space-Track

VELA 2, 674 is a payload satellite owned by USAF SSD (US) in HEO that was launched on Thu, 17 Oct 1963 UTC via an ATLAS AGENA D launch vehicle from the Air Force Eastern Test Range (AFETR). Payload-class satellites include a variety of spacecraft equipped with specific instruments for various scientific and technological missions. These include communications satellites like Starlink; space stations such as the ISS; scientific satellites like the Hubble; Earth observation satellites from companies like Planet Labs, Umbra, and HawkEye 360; GPS; miniature CubeSats for education and research; and military/defense satellites.

Loading next visibility...
Identifier
674, 1963-039A
Orbit
HEO
Last TLE update
3 weeks ago
Origin
Manufacturer
TRW
Mission
Defense Early Warn
Bus & Motor
VELA, BE3A
Mass
~217 kg wet, 115 kg dry
Launch date (UTC)
1963-10-17 (62 years ago)
Launch vehicle
ATLAS AGENA D
Launch site
Air Force Eastern Test Range (AFETR)
Object type
Payload
Rocket body
Debris
Shape & HBR
Poly, 1.4 m
Radar Cross Section
2.240 m², Small (<0.1 m²)

Expand to show TLE details & history

TLE from 3 weeks ago
0 VELA 2
1   674U 63039A   25161.65529866  .00000269  00000-0  00000+0 0  9996
2   674  46.7676 109.3225 4756192  83.3965   0.1513  0.22203048 50012
Epoch: 2025-06-10T15:43Z
TLE epoch observation values (Epoch: 2025-06-10T15:43:37.804Z)
Latitude
46.57299°
Longitude
56.65767°
Altitude
54,756.38 km
Speed
3.096 km/s
True Right ascension
12h 47m 15s
True Declination
46° 33' 11"
Sunlit
Object was in daylight at epoch
Visualization orbit readout
Latitude
-32.49902°
Longitude
-62.99735°
Altitude
122,506.045 km
Speed
1.651 km/s
Apparent Right ascension
04h 46m 48s
Apparent Declination
-32° 50' 57"
Sunlit
Object is in daylight
Visualization observer readout
Local Sidereal Time
16:05:52
Azimuth
307.482° NW
Elevation
-79.159°
Doppler factor
1
Orbital elements
Apogee altitude
163,616.455 km
Perigee altitude
54,031.69 km
Semi-major axis
115,202.209 km
Eccentricity
0.47562
Inclination
46.7676°
RAAN
109.3225°
Arg. of periapsis
83.3965°
True anomaly
Unknown
Mean anomaly
0.1513°
Eccentric anomaly
Unknown
Mean motion
0.05551 °/min
Orbital period
6,485.61 mins
BSTAR
0
Loading maneuver chart data...
Loading SW <> Apogee altitude chart data...
Loading historical data...
Loading historical data...
Loading historical data...
Loading historical data...
Loading historical data...
Loading historical data...
Loading historical data...
Other satellites on launch #39 in the year 1963 (1963-10-17 UTC)

VELA 2 Visibility forecast

Observer location: undefined°, undefined°

Span
Click to sort rows by Start time (UTC) header in descending order
Start Az.
Max El. time (UTC)
Max El. Az.
Max El.
End time (UTC)
End Az.
819 mins2025-07-02 14:45:27.967Z117.644° SE2025-07-02 21:58:27.967Z221.971° SW41.481°2025-07-03 04:24:27.967Z297.382° NW
|